Temperature
15 14 14 14 13 14 13 12 12 11 11 10 10 10 10 10 11 11 11 12 11 11 11 12 12 12 12 13 13 13 13 14 14 14 15 15 15 15 15 15 15 15 15 15
15 15 15 14 14 13 12 12 12 12 11 10 10 10 11 11 12 12 12 12 12 12 12 12 12 12 12 12 12 13 13 13 14 14 14 15 15 15 15 15 15 15 15 15
16 15 15 15 14 13 12 12 11 11 10 10 11 11 11 12 12 12 12 12 12 12 12 12 12 12 12 12 12 12 12 13 13 13 13 13 14 14 14 14 15 15 14 14
16 16 15 14 14 13 12 12 12 11 12 11 12 12 12 12 12 13 13 13 13 13 13 13 12 12 12 12 12 12 11 12 12 12 12 12 13 13 13 13 13 13 14 13
16 16 15 14 14 13 13 14 13 12 13 12 13 14 15 13 13 13 13 13 13 13 13 13 13 13 13 12 12 11 11 11 11 11 11 12 12 12 12 12 12 12 13 13
16 17 16 15 15 13 14 15 14 13 13 13 15 17 15 13 13 13 13 13 13 14 14 14 13 13 13 13 12 11 11 11 11 11 11 11 11 11 12 12 12 12 12 12
17 17 17 15 13 13 15 15 14 13 13 13 14 14 13 13 13 13 14 14 14 14 14 14 13 13 13 13 12 11 11 11 11 11 11 11 11 11 11 11 11 11 11 11
16 17 16 14 14 15 15 14 13 13 13 12 12 12 13 13 13 13 14 14 14 14 14 14 14 13 13 13 12 12 11 11 11 11 11 11 11 11 11 11 11 11 11 11
16 16 14 13 14 13 12 13 13 13 12 12 12 12 13 13 13 13 13 14 14 15 15 14 14 14 14 13 13 12 11 11 11 11 11 11 11 11 11 11 11 10 10 10
15 15 14 13 13 12 12 12 12 12 12 12 12 12 13 13 13 13 14 14 14 15 15 15 15 14 14 14 13 12 12 11 11 11 11 11 11 10 10 10 10 10 10 10
16 16 14 13 13 12 12 12 12 12 12 12 12 12 12 13 13 13 14 14 14 15 15 15 15 15 15 14 13 13 12 12 11 11 11 10 10 10 10 10 10 10 10 10
17 16 16 15 13 12 12 12 12 12 12 12 12 12 12 12 13 13 14 14 14 15 15 15 15 15 15 15 14 13 13 12 11 11 11 10 10 10 10 10 9 9 9 10
15 14 14 14 13 12 12 12 12 12 12 12 12 12 12 12 13 13 14 14 15 15 15 15 15 15 15 15 14 13 13 12 11 11 11 10 10 10 10 10 10 9 9 10
13 13 13 13 13 12 12 12 12 12 12 12 12 12 12 12 13 13 14 15 15 15 15 15 15 15 15 15 14 13 12 12 11 11 11 11 10 10 10 10 9 9 9 9
13 13 14 13 13 12 12 12 12 12 12 12 12 12 13 13 13 13 14 15 15 15 15 15 16 16 16 15 14 13 12 12 11 11 11 11 10 10 10 10 10 10 9 9
13 12 13 13 13 12 12 12 12 12 12 12 12 12 13 13 13 13 14 14 15 15 15 15 16 16 16 15 14 13 13 12 12 11 11 11 10 10 10 10 10 10 10 9
13 13 13 13 13 13 13 12 12 12 12 12 12 12 12 12 13 13 14 14 14 14 15 15 16 16 15 15 14 13 13 12 12 11 11 11 10 10 10 10 10 10 10 9
14 14 14 14 13 13 12 12 12 12 12 12 12 12 12 12 12 13 13 14 14 13 14 15 15 16 15 15 14 13 13 12 11 11 11 11 10 10 10 10 9 9 9 9
14 14 13 13 13 13 13 12 12 12 11 12 12 12 12 12 12 12 13 13 13 14 14 15 15 15 15 15 15 14 13 12 12 11 11 11 11 10 10 10 9 9 9 8
13 13 13 13 13 12 12 12 12 11 11 12 12 11 11 11 12 12 12 12 12 13 14 15 15 15 15 15 14 14 13 12 12 11 11 11 10 10 10 10 9 9 9 8
13 13 13 13 13 13 12 12 12 11 11 12 12 11 11 12 12 12 12 12 12 13 13 14 14 14 15 15 14 14 13 13 12 12 11 11 10 10 10 10 9 9 9 8
13 13 13 13 13 12 12 12 12 11 11 12 12 12 12 12 12 12 12 12 12 13 13 13 13 14 14 15 14 14 14 13 12 12 11 11 11 10 10 10 10 9 9 9
13 13 13 13 13 13 12 12 12 12 11 12 12 12 12 12 12 12 12 12 12 13 13 13 13 14 14 14 14 14 14 13 13 12 12 11 11 11 10 10 10 10 9 9
12 12 12 13 13 12 12 12 12 12 12 12 12 12 12 12 12 12 12 12 12 13 13 13 13 13 14 14 14 14 13 13 13 13 12 12 11 11 11 10 10 10 10 9
12 12 12 12 12 12 12 12 12 12 11 11 12 12 12 12 12 12 12 12 13 13 13 13 13 13 13 13 13 13 13 13 13 13 13 12 12 11 11 11 10 10 10 10
12 12 12 12 12 12 12 12 12 12 12 11 12 12 12 12 12 12 12 13 13 13 13 13 13 13 13 13 13 13 13 13 13 13 13 13 12 12 11 11 11 10 10 10
11 11 12 12 12 12 12 12 12 12 12 12 12 12 12 12 12 12 12 12 12 12 12 13 13 12 13 13 13 13 13 13 13 13 13 13 12 12 12 11 11 11 10 10
Wind_Speed
7 4 5 9 11 12 11 8 6 7 8 11 14 13 13 12 12 12 13 14 14 13 12 12 12 11 11 10 8 7 6 5 4 4 3 2 1 1 2 3 5 6 6 7
4 2 3 6 10 10 9 8 7 7 7 9 11 10 11 12 12 12 13 13 13 13 13 13 13 13 12 12 11 10 10 9 8 7 6 6 5 3 2 1 2 3 4 5
2 1 3 3 6 6 5 6 5 6 5 10 9 11 11 11 11 11 12 12 12 12 12 12 12 12 12 12 11 11 11 10 9 9 8 8 7 6 5 4 3 2 2 2
1 2 1 3 1 2 2 2 3 4 6 8 8 7 5 9 11 11 11 11 11 11 11 11 11 11 10 11 11 12 11 11 10 9 9 8 8 8 7 6 6 5 5 4
1 1 2 2 2 1 1 1 1 3 6 8 8 0 7 11 12 11 10 10 9 9 9 10 10 10 10 11 11 11 11 11 11 10 10 10 9 9 8 7 7 7 7 7
2 2 1 4 5 2 3 2 2 2 5 8 8 5 8 13 13 11 10 9 9 8 9 9 9 9 10 10 11 11 10 10 9 9 9 9 9 8 7 6 6 6 7 7
3 2 2 5 5 4 2 4 2 2 4 6 7 7 9 12 10 10 9 9 9 8 8 8 7 7 8 10 10 8 8 8 8 8 8 8 8 7 7 6 6 6 6 7
3 3 2 8 6 4 2 3 1 2 4 6 7 8 9 10 10 10 9 9 9 8 7 6 6 6 7 6 5 5 5 6 7 7 7 7 7 7 8 7 7 7 7 7
3 1 4 7 5 1 1 1 0 2 4 6 7 8 9 10 10 9 9 9 9 8 8 6 5 5 5 3 2 2 4 4 5 5 6 6 7 7 7 7 7 7 7 7
5 6 7 7 6 5 4 2 1 3 4 5 6 8 9 9 9 10 10 9 9 9 9 8 7 5 4 2 1 1 3 4 4 5 6 6 5 5 6 7 7 7 7 7
6 5 7 9 9 7 5 3 2 2 3 4 6 8 9 9 10 10 10 9 9 9 9 9 8 6 4 2 2 1 2 3 4 5 5 5 5 5 6 7 7 6 6 6
5 8 7 9 12 10 7 5 3 1 2 3 5 7 8 9 9 9 10 10 9 10 9 9 8 6 3 2 2 1 2 4 4 4 4 4 4 5 5 4 6 9 10 9
1 6 5 6 10 10 8 5 3 2 2 3 4 6 7 8 8 9 9 10 10 10 9 9 8 6 3 1 1 1 2 3 3 4 4 4 4 4 5 5 4 7 11 12
5 7 7 8 9 10 8 6 4 2 2 2 4 5 6 7 8 9 10 10 10 9 9 8 7 6 4 1 2 2 3 4 3 3 4 4 5 5 5 4 4 5 7 11
10 8 6 9 10 10 8 6 5 3 2 2 3 4 6 8 9 9 9 10 9 8 9 9 8 7 5 1 2 3 3 3 3 3 3 4 4 4 4 5 5 4 4 6
13 10 8 10 11 11 10 8 6 4 3 2 3 4 6 7 7 8 8 9 9 9 9 9 9 8 5 0 3 3 3 4 2 2 3 3 3 3 4 4 4 4 5 5
17 16 14 13 13 12 11 9 6 4 3 3 3 4 5 6 7 8 9 9 7 7 7 9 9 8 4 0 3 3 4 5 4 2 2 2 2 3 3 3 4 4 5 6
17 16 15 14 13 12 11 9 7 5 4 3 3 4 5 6 7 8 9 9 7 6 7 9 9 8 4 1 1 2 3 3 3 2 2 2 2 2 2 3 4 4 3 4
14 14 14 12 12 11 10 9 8 6 5 4 4 4 4 5 6 7 8 8 7 7 9 10 11 7 4 1 0 3 3 3 3 3 2 3 2 2 2 2 2 3 2 3
14 14 14 13 11 10 9 8 7 6 5 5 4 4 5 5 5 7 7 6 5 6 9 10 9 6 4 1 2 3 3 4 3 3 3 3 3 2 2 2 2 2 2 2
15 15 14 13 12 11 10 9 8 7 6 6 6 5 5 5 5 6 6 5 5 7 9 9 6 5 4 4 4 4 4 4 4 4 4 4 3 3 3 3 3 3 2 2
15 15 15 14 13 12 11 10 9 8 7 7 7 6 6 6 6 6 5 4 6 8 8 6 6 7 9 9 5 4 5 5 5 4 4 4 4 4 4 4 3 3 3 2
14 15 15 15 14 13 12 10 10 9 9 8 8 7 7 6 5 5 5 4 6 9 8 6 8 12 13 7 5 5 6 6 6 5 5 5 5 5 4 4 4 4 4 3
12 13 14 14 14 13 13 12 11 9 9 8 8 8 7 6 6 6 6 6 6 9 8 7 10 11 11 5 5 5 6 6 6 6 6 5 5 5 5 5 4 4 4 5
8 11 12 13 13 12 12 12 11 10 10 8 9 9 8 7 6 6 6 6 7 8 7 7 8 10 7 4 4 5 5 6 6 6 6 6 6 6 6 5 5 5 5 5
4 6 8 10 10 9 9 9 9 8 9 8 8 8 7 7 7 7 6 7 8 8 7 6 6 7 5 5 4 5 5 5 6 6 7 6 7 7 6 6 7 6 5 5
1 3 4 6 7 8 8 8 9 9 9 9 9 8 7 7 7 7 8 7 7 6 6 6 6 6 6 5 5 5 5 6 6 7 7 7 7 7 7 8 7 6 6 6
Wind_Direction
104 95 49 38 27 28 37 29 26 17 17 4 353 349 352 2 12 23 28 31 31 31 30 30 31 30 31 31 32 38 44 44 33 31 33 33 22 302 257 244 240 238 237 233
141 150 37 43 32 27 26 18 19 32 30 351 341 348 3 10 16 25 29 31 33 33 33 33 34 36 37 37 39 45 49 46 41 42 44 41 39 34 21 323 269 254 248 242
134 178 224 48 24 15 16 14 7 18 345 328 338 347 357 3 12 24 27 29 32 34 34 33 33 33 36 37 41 46 48 47 44 45 46 44 45 47 43 42 39 23 342 286
165 196 69 73 66 327 328 353 360 343 325 326 324 324 359 14 11 14 16 20 26 29 33 35 36 37 41 42 44 47 48 48 46 47 50 50 50 48 44 46 49 43 36 34
234 146 129 187 197 241 300 55 32 341 343 345 329 205 61 26 9 1 360 3 11 16 24 31 32 30 40 47 50 49 46 46 46 48 48 47 46 45 42 47 53 53 48 42
223 243 162 150 144 178 241 134 97 355 356 355 351 57 34 0 351 350 351 354 357 4 16 26 27 26 38 45 48 48 45 46 47 46 44 42 41 40 42 47 49 54 52 42
227 236 137 141 146 185 223 94 82 2 357 359 10 2 337 337 345 347 347 347 346 353 6 9 9 17 34 41 44 43 42 43 42 42 41 37 35 34 34 40 43 44 47 42
216 224 178 154 169 203 50 76 59 6 356 349 343 338 341 345 348 350 350 350 346 344 349 352 355 2 27 38 38 41 42 42 41 37 32 30 33 31 30 30 35 35 33 33
234 25 103 170 188 158 163 219 40 347 342 335 333 340 343 344 347 349 349 349 346 339 334 339 350 349 1 28 27 35 43 44 39 44 42 34 34 35 36 34 34 31 27 22
239 225 199 193 198 200 212 232 277 309 319 324 331 338 343 345 347 349 349 347 340 335 334 339 341 332 329 340 304 359 35 36 36 39 46 49 46 41 42 36 32 28 22 17
230 197 190 206 205 199 197 211 240 281 310 327 333 340 345 345 349 347 343 342 338 336 332 329 331 329 323 303 275 340 34 42 41 45 45 53 63 52 47 53 29 12 8 5
210 189 187 187 188 189 194 202 211 255 319 341 340 342 344 346 347 344 341 340 339 338 333 333 335 335 333 296 265 311 39 46 47 50 51 53 73 100 82 49 39 30 22 12
118 161 152 139 160 173 185 187 192 235 307 331 342 344 342 343 345 344 344 346 344 340 337 336 339 345 355 317 230 224 71 73 70 56 57 57 60 67 93 116 112 65 41 36
161 158 162 164 166 171 173 176 187 217 265 308 328 338 342 343 349 352 352 348 343 343 347 348 350 1 1 350 185 162 107 92 89 78 62 58 63 67 63 68 76 73 68 50
188 191 177 167 166 169 174 180 195 209 230 282 322 337 345 346 348 350 350 348 346 356 2 359 2 6 1 359 166 148 129 120 106 90 83 72 74 77 77 74 68 53 56 69
185 188 180 176 176 178 182 192 203 208 222 267 309 335 341 338 339 345 352 354 352 358 359 357 359 357 355 24 149 140 121 90 105 127 115 95 87 85 82 80 73 61 47 35
180 188 189 188 187 187 191 197 206 212 222 250 296 321 327 332 340 351 353 352 348 349 357 359 355 351 355 13 161 149 142 142 168 169 121 103 99 88 87 90 85 76 62 41
197 195 193 192 188 189 194 198 206 215 228 247 280 295 315 330 339 343 343 342 346 358 9 2 355 344 359 16 171 160 159 159 164 141 141 143 128 118 100 93 99 101 99 89
200 196 195 196 194 192 195 198 204 212 217 228 254 281 306 316 326 332 335 338 347 353 355 351 337 338 0 25 234 193 183 174 174 165 161 155 186 162 149 128 113 110 107 101
198 196 195 194 193 196 197 198 201 206 212 221 241 265 287 307 320 324 327 328 348 347 335 334 330 340 344 352 251 219 199 195 194 185 184 194 193 184 178 169 158 145 139 117
198 195 194 193 194 198 202 201 201 206 208 215 235 256 279 296 306 311 317 320 344 347 332 316 324 337 335 328 260 233 214 205 202 199 196 200 198 196 194 186 184 190 185 166
200 197 196 196 196 199 202 204 204 206 208 214 228 244 261 276 288 297 295 298 320 333 325 322 333 344 329 305 257 229 217 209 206 203 203 206 208 206 201 196 196 198 200 197
202 200 198 198 200 202 200 202 205 207 212 219 226 236 248 265 279 285 295 311 321 329 320 318 333 325 314 285 244 222 213 209 206 204 204 206 209 210 204 200 202 203 207 202
204 203 202 201 202 204 203 204 208 210 215 222 228 234 243 252 259 256 266 282 291 305 307 318 319 318 305 277 250 231 218 208 204 205 201 202 206 208 207 205 204 205 205 203
204 203 202 201 203 207 212 209 208 210 216 223 230 230 234 240 251 266 274 283 294 297 304 312 311 310 301 290 266 246 230 215 207 201 202 203 204 208 209 207 207 206 204 204
204 205 206 207 209 209 208 206 208 211 215 223 230 230 229 229 237 246 256 267 275 283 292 304 313 308 313 305 286 264 245 219 204 209 211 209 207 206 208 207 205 205 205 203
249 211 211 217 218 216 214 210 214 218 219 225 232 233 229 227 228 234 245 256 265 273 285 295 305 312 312 303 287 270 253 238 226 217 212 210 209 209 209 207 205 200 196 197
Height
1562 1563 1562 1562 1562 1558 1558 1559 1560 1560 1558 1558 1554 1550 1546 1542 1538 1534 1531 1527 1524 1521 1518 1515 1512 1510 1508 1506 1505 1505 1504 1505 1505 1506 1507 1507 1508 1509 1509 1510 1511 1512 1512 1512
1562 1563 1562 1562 1563 1562 1563 1563 1561 1559 1561 1560 1557 1552 1548 1545 1541 1538 1535 1533 1530 1527 1524 1521 1518 1515 1512 1510 1508 1507 1506 1505 1505 1505 1506 1506 1506 1507 1507 1508 1508 1508 1508 1509
1557 1561 1561 1562 1566 1567 1567 1567 1566 1565 1566 1561 1557 1553 1551 1548 1545 1542 1540 1538 1535 1532 1529 1526 1523 1520 1517 1514 1512 1510 1509 1507 1507 1506 1506 1506 1506 1506 1506 1505 1505 1505 1505 1505
1557 1560 1562 1567 1567 1569 1568 1567 1567 1566 1564 1561 1558 1555 1553 1550 1548 1545 1543 1541 1539 1536 1533 1531 1528 1525 1522 1519 1517 1515 1513 1511 1510 1509 1508 1507 1506 1505 1505 1504 1504 1503 1503 1503
1556 1556 1563 1565 1565 1567 1566 1564 1566 1565 1563 1560 1557 1554 1553 1552 1550 1548 1546 1544 1542 1539 1537 1535 1532 1529 1527 1525 1522 1519 1517 1515 1514 1512 1511 1509 1508 1507 1506 1505 1504 1503 1502 1501
1557 1555 1558 1560 1564 1567 1568 1561 1564 1564 1563 1561 1556 1550 1555 1554 1552 1550 1548 1546 1544 1542 1540 1537 1535 1532 1531 1528 1525 1523 1521 1519 1517 1516 1514 1512 1511 1509 1508 1507 1505 1504 1503 1501
1554 1553 1554 1560 1564 1567 1564 1562 1564 1564 1564 1562 1560 1560 1560 1556 1554 1552 1549 1547 1545 1544 1542 1539 1537 1535 1533 1531 1528 1526 1524 1522 1520 1518 1517 1515 1513 1511 1509 1508 1506 1505 1503 1502
1554 1553 1559 1560 1563 1563 1561 1563 1564 1564 1564 1564 1562 1561 1559 1557 1555 1553 1551 1549 1547 1545 1543 1541 1539 1537 1535 1533 1530 1528 1526 1524 1523 1521 1519 1516 1514 1512 1510 1509 1507 1506 1504 1503
1552 1554 1557 1559 1560 1562 1563 1564 1564 1565 1564 1564 1563 1561 1559 1557 1556 1553 1551 1549 1547 1545 1544 1542 1540 1538 1536 1534 1532 1530 1528 1527 1525 1523 1520 1518 1516 1514 1512 1510 1508 1507 1505 1504
1553 1552 1556 1558 1560 1561 1562 1563 1564 1564 1564 1563 1562 1561 1559 1557 1555 1553 1551 1549 1547 1545 1544 1542 1540 1538 1536 1534 1532 1531 1530 1528 1527 1525 1523 1520 1517 1515 1514 1512 1511 1509 1507 1505
1548 1550 1554 1556 1557 1560 1561 1562 1563 1563 1563 1563 1562 1560 1559 1557 1555 1553 1551 1549 1547 1545 1543 1541 1539 1537 1536 1534 1533 1532 1531 1530 1528 1526 1524 1522 1520 1518 1516 1515 1513 1511 1509 1508
1542 1544 1547 1550 1554 1557 1559 1561 1562 1562 1563 1562 1561 1560 1559 1557 1555 1553 1551 1549 1547 1545 1542 1540 1538 1537 1535 1534 1533 1533 1532 1531 1529 1528 1526 1524 1522 1521 1519 1517 1516 1514 1512 1510
1542 1544 1546 1549 1552 1555 1558 1560 1561 1561 1562 1561 1561 1559 1558 1557 1555 1553 1551 1549 1547 1544 1542 1540 1538 1537 1535 1534 1533 1533 1532 1531 1530 1529 1528 1526 1525 1523 1522 1520 1518 1517 1515 1513
1541 1543 1546 1548 1551 1554 1556 1558 1560 1560 1560 1560 1560 1559 1558 1556 1555 1553 1551 1549 1546 1544 1542 1540 1538 1537 1535 1534 1533 1533 1532 1531 1531 1530 1529 1528 1526 1525 1524 1523 1521 1520 1518 1515
1539 1543 1545 1547 1550 1552 1555 1557 1558 1559 1560 1560 1559 1558 1557 1556 1554 1552 1550 1548 1546 1545 1543 1541 1539 1537 1535 1534 1533 1533 1533 1532 1532 1531 1530 1529 1528 1527 1526 1525 1523 1522 1520 1518
1536 1540 1543 1545 1548 1550 1553 1555 1557 1558 1558 1558 1558 1557 1556 1555 1553 1552 1550 1548 1546 1545 1543 1541 1539 1537 1536 1535 1534 1533 1533 1532 1532 1532 1532 1531 1530 1529 1528 1527 1525 1524 1522 1521
1533 1536 1539 1543 1546 1548 1551 1553 1555 1556 1556 1557 1556 1556 1555 1554 1553 1551 1549 1547 1546 1544 1542 1541 1539 1537 1536 1535 1534 1534 1533 1532 1532 1533 1533 1532 1532 1531 1530 1529 1527 1526 1524 1522
1529 1533 1536 1540 1543 1546 1548 1550 1552 1553 1554 1554 1554 1554 1554 1553 1552 1550 1548 1546 1545 1544 1542 1540 1539 1537 1536 1535 1534 1534 1534 1533 1533 1533 1533 1533 1532 1532 1531 1530 1529 1527 1526 1524
1526 1531 1534 1538 1541 1544 1546 1548 1549 1551 1551 1552 1552 1552 1552 1551 1550 1548 1547 1545 1544 1543 1541 1540 1538 1537 1536 1535 1534 1534 1533 1533 1533 1533 1533 1532 1532 1532 1532 1531 1530 1529 1527 1526
1523 1527 1531 1535 1538 1541 1543 1545 1546 1547 1548 1549 1550 1550 1550 1549 1548 1546 1545 1544 1543 1541 1540 1538 1537 1536 1535 1534 1534 1533 1533 1533 1533 1533 1532 1532 1533 1532 1532 1531 1530 1529 1528 1527
1519 1523 1527 1531 1534 1537 1540 1542 1543 1545 1545 1546 1547 1548 1548 1547 1546 1545 1543 1543 1542 1540 1538 1537 1535 1534 1534 1533 1533 1532 1532 1532 1532 1532 1531 1532 1532 1532 1531 1531 1530 1529 1528 1527
1516 1519 1523 1527 1531 1534 1537 1539 1540 1541 1542 1543 1544 1544 1545 1544 1544 1543 1542 1541 1539 1538 1536 1535 1534 1532 1531 1531 1531 1531 1530 1530 1530 1530 1530 1530 1531 1531 1531 1530 1530 1529 1528 1527
1512 1515 1519 1523 1527 1531 1533 1535 1537 1538 1539 1540 1541 1541 1542 1542 1541 1540 1540 1539 1537 1536 1534 1533 1531 1530 1529 1529 1529 1528 1528 1528 1528 1528 1528 1528 1529 1529 1529 1529 1529 1528 1527 1526
1507 1511 1515 1519 1523 1527 1529 1531 1533 1534 1535 1536 1537 1538 1538 1538 1538 1537 1536 1535 1534 1533 1532 1531 1529 1528 1527 1526 1526 1526 1527 1526 1526 1526 1526 1526 1526 1527 1527 1527 1527 1527 1526 1525
1504 1507 1511 1514 1518 1521 1524 1527 1529 1530 1531 1532 1533 1534 1534 1534 1534 1534 1533 1532 1531 1530 1529 1528 1526 1525 1524 1524 1524 1524 1524 1524 1524 1524 1524 1524 1524 1524 1525 1525 1525 1525 1524 1524
1502 1504 1506 1509 1513 1516 1519 1522 1523 1525 1527 1528 1529 1529 1530 1530 1530 1530 1529 1529 1528 1527 1526 1525 1524 1523 1522 1521 1521 1521 1521 1521 1521 1521 1521 1521 1521 1521 1522 1522 1522 1522 1522 1522
1500 1502 1503 1505 1508 1511 1513 1515 1518 1520 1521 1523 1524 1525 1525 1525 1526 1526 1525 1525 1524 1523 1523 1522 1521 1520 1519 1518 1518 1517 1517 1518 1518 1518 1518 1518 1518 1518 1518 1519 1519 1519 1519 1519